Location: Erdweis
(48.5167°N, 15.3500°E)
Time: 06:43:51
(UTC+00:00)

Cosmos 1626 - Pass Details

Date: 18 September 2020
Orbit: 490 x 495 km, 82.5° (Epoch: 23 October)

Event Time Altitude Azimuth Distance (km) Brightness Sun altitude
Rises 18:38:16 0° 2° (N) 2,590 6.0 -16.0°
Reaches altitude 10° 18:40:49 10° 20° (NNE) 1,700 4.8 -16.4°
Enters shadow 18:42:57 19° 54° (NE) 1,226 3.8 -16.7°
